Location: Hahmaj�rvi
(61.5500°N, 23.0333°E)
Time: 19:11:32
(UTC+00:00)

Daily predictions for brighter satellites

Satellite Brightness Start Highest point End
(mag) Time Altitude Azimuth Time Altitude Azimuth Time Altitude Azimuth
NOSS 3-4 (A) 4.0 19:44:52 10° WNW 19:51:24 64° SW 19:58:43 10° SE
NOSS 3-4 (C) 4.0 19:44:59 10° WNW 19:51:30 64° SW 19:58:50 10° SE
Meteor 1-5 Rocket 4.3 19:47:55 10° NNW 19:53:27 81° WSW 19:58:48 10° S
Cosmos 2084 Rocket 3.4 19:50:17 10° WNW 19:54:26 87° SSW 19:58:46 10° ESE
NOSS 2-1 (E) 3.8 19:51:17 10° W 19:54:55 69° N 19:59:37 10° E
Cosmos 1470 Rocket 4.0 19:52:30 10° NNW 19:56:57 65° W 20:01:24 10° S
Cosmos 2074 Rocket 4.1 19:51:02 10° NNW 19:57:24 83° ENE 20:03:44 10° SSE
Cosmos 44 3.6 19:51:55 10° WNW 19:57:26 89° SW 20:02:52 10° ESE
Cosmos 1437 2.8 19:55:30 10° S 19:58:15 46° ESE 20:01:02 10° NNE
ATLAS 5 CENTAUR R/B 3.9 19:54:31 10° WNW 19:58:45 23° SW 20:03:29 10° S
Cosmos 1812 3.1 19:57:40 10° S 20:01:23 47° E 20:05:08 10° NNE
Cosmos 1844 3.7 19:56:26 10° SSW 20:02:07 71° SE 20:07:46 10° NE
Cosmos 968 Rocket 3.7 19:57:35 10° SW 20:02:51 79° NW 20:08:06 10° NE
ATLAS 2AS CENTAUR R/B 3.0 19:57:32 10° WNW 20:05:10 75° SSW 20:12:14 10° SE
ALOS 2 4.1 20:02:34 10° ESE 20:06:18 28° NE 20:10:02 10° N
Cosmos 1328 Rocket 3.6 20:02:24 10° S 20:06:51 80° ESE 20:11:17 10° NNE
Cosmos 2112 Rocket 4.3 20:02:18 10° NNW 20:07:41 70° NE 20:13:02 10° SE
Cosmos 1833 Rocket 3.4 20:02:26 10° NW 20:07:53 49° WSW 20:13:17 10° S
SL-24 R/B - RUBIN 2 4.2 20:03:52 10° WNW 20:09:51 79° SSW 20:15:06 10° SE
Cosmos 1486 Rocket 4.2 20:05:01 10° SW 20:10:23 82° NW 20:15:47 10° NE
Cosmos 1933 Rocket 3.8 20:07:13 10° NNW 20:11:33 68° W 20:15:51 10° S
Meteor 1-26 Rocket 4.3 20:07:13 10° SSW 20:12:53 87° WNW 20:18:25 10° NNE
Cosmos 1666 2.9 20:09:18 10° NNW 20:13:03 67° W 20:16:45 10° S
Cosmos 2315 Rocket 4.2 20:09:13 10° SSW 20:15:37 84° WNW 20:22:04 10° NNE
USA 215 3.4 20:10:25 10° ESE 20:16:52 57° SSW 20:23:19 10° W
Cosmos 2227 Rocket 4.2 20:12:06 10° WNW 20:17:12 32° N 20:22:17 10° ENE
Cosmos 1743 3.4 20:14:18 10° N 20:18:00 43° ENE 20:21:42 10° SE
Cosmos 2297 Rocket 4.1 20:16:03 10° WNW 20:21:08 32° N 20:26:13 10° ENE
USA 305 4.5 20:22:21 10° WSW 20:25:30 20° SSW 20:28:37 10° SSE
Iridium 4 Rocket 3.9 20:23:16 10° S 20:29:03 86° E 20:35:03 10° N
Cosmos 158 Rocket 4.3 20:26:01 10° NW 20:30:48 55° WSW 20:35:35 10° SSE
Cosmos 2341 Rocket 4.3 20:25:31 10° NNW 20:31:54 63° ENE 20:38:14 10° SSE
Cosmos 1242 Rocket 3.8 20:28:42 10° SW 20:32:07 41° WNW 20:35:31 10° N
Cosmos 1733 Rocket 3.6 20:30:35 10° N 20:34:49 48° ENE 20:38:57 10° SE
Cosmos 1680 Rocket 3.6 20:30:35 10° NW 20:35:56 79° WSW 20:41:08 11° SSE
Resurs 01 Rocket 4.3 20:35:37 10° WSW 20:38:00 14° W 20:40:23 10° NW
COSMOS 2406 4.4 20:32:57 10° NW 20:38:00 34° WSW 20:43:02 10° S
Cosmos 2082 Rocket 2.7 20:35:44 10° NW 20:41:08 50° WSW 20:46:28 10° SSE
Cosmos 1818 3.6 20:35:38 10° WNW 20:41:09 75° SW 20:46:38 10° SE
NOSS 2-1 (C) 3.8 20:37:49 10° WNW 20:41:32 71° N 20:46:28 10° E
Meteor 1-27 Rocket 4.2 20:36:29 10° S 20:42:06 51° E 20:47:50 10° NNE
SJ 16-02 1.9 20:38:44 10° S 20:42:54 41° ESE 20:47:06 10° NE
CZ-4C R/B 3.9 20:37:59 10° WNW 20:44:01 32° SW 20:50:54 10° S
Cosmos 2228 Rocket 3.3 20:40:15 10° S 20:44:36 57° E 20:49:00 10° NNE
Meteor 2-6 Rocket 4.2 20:42:49 10° SSW 20:48:16 87° ESE 20:53:52 10° NNE
NOSS 2-1 (D) 3.7 20:44:35 10° WNW 20:48:19 73° N 20:53:18 10° E
Cosmos 1782 4.1 20:46:53 10° SW 20:50:41 40° WNW 20:54:30 10° N
Cosmos 2218 Rocket 4.4 20:45:04 10° NNW 20:51:15 59° ENE 20:57:18 11° SSE
H-2A R/B 3.5 20:48:37 10° NNE 20:52:52 84° ESE 20:57:04 10° SSW
Meteor 1-11 Rocket 4.4 20:50:48 10° NNW 20:56:39 57° W 21:02:27 10° S
ERS-1 Rocket 4.5 20:52:32 10° SSW 20:56:57 30° W 21:01:24 10° NNW
COSMOS 2455 3.8 20:52:18 10° WNW 20:58:12 51° N 21:04:06 10° E
USA 281 4.3 20:53:44 10° E 20:59:53 44° NNE 21:06:02 10° NW
ERBS 3.0 20:58:30 10° WSW 21:01:30 32° SSW 21:04:20 11° SE
Cosmos 1271 Rocket 2.8 21:00:48 10° SSW 21:04:49 89° ESE 21:08:52 10° NNE
Cosmos 1777 Rocket 4.0 21:01:29 10° SSW 21:06:42 84° ESE 21:11:57 10° NE
Terra 3.2 21:03:26 10° SSW 21:07:40 31° W 21:11:56 10° NNW
Cosmos 1340 Rocket 3.2 21:06:27 10° NNW 21:10:30 61° WSW 21:14:05 13° S
Cosmos 2278 Rocket 2.3 21:07:47 10° SSW 21:13:22 63° SE 21:18:59 10° NE
Okean 1 4.3 21:10:57 13° SSE 21:14:00 34° E 21:17:38 10° NNE
Cosmos 1544 3.7 21:14:21 10° NNW 21:17:49 47° W 21:20:56 12° S
Spot 4 4.0 21:14:20 13° S 21:18:42 73° WSW 21:23:36 10° NNW
Cosmos 1536 3.9 21:16:14 10° NNW 21:20:02 39° W 21:23:47 10° SSW
SL-8 Rocket 4.1 21:14:47 10° NNW 21:21:11 90° WSW 21:26:56 13° SSE
Cosmos 1898 Rocket 4.3 21:17:25 13° S 21:21:39 37° ESE 21:26:31 10° NE
Cosmos 2263 Rocket 4.1 21:16:58 10° WNW 21:22:04 34° NNW 21:27:12 10° NE
Cosmos 44 Rocket 3.7 21:17:43 10° WNW 21:23:00 74° NNE 21:28:14 10° ESE
Cosmos 1862 Rocket 4.3 21:19:52 14° SSE 21:23:13 38° E 21:27:15 10° NNE
Cosmos 1515 4.3 21:20:36 15° SSE 21:23:28 43° E 21:27:05 10° NNE
Meteor 2-9 Rocket 4.3 21:17:40 10° NNW 21:23:35 89° ENE 21:28:43 13° SSE
Cosmos 2369 Rocket 4.0 21:21:53 10° SE 21:25:16 16° E 21:28:40 10° ENE
Cosmos 2084 3.7 21:21:52 10° SW 21:25:55 47° SE 21:30:05 10° ENE
Cosmos 1844 Rocket 3.7 21:20:36 10° WSW 21:26:03 50° NNW 21:31:32 10° NE
RESURS DK-1 2.6 21:25:13 10° NW 21:29:24 71° NE 21:33:34 10° SE
COBE Rocket 4.1 21:27:36 13° SSE 21:32:07 77° ENE 21:37:18 10° NNW
Cosmos 1975 2.8 21:29:12 10° NNW 21:33:14 80° ENE 21:36:27 15° SSE
Cosmos 2084 Rocket 4.2 21:29:48 10° WNW 21:33:40 36° SW 21:36:50 15° SSE
Cosmos 1943 Rocket 3.3 21:30:25 13° SSE 21:34:22 28° ESE 21:39:04 10° NE
SL-27 R/B 3.3 21:33:07 10° NNW 21:36:19 42° NE 21:39:30 10° ESE
Cosmos 1812 4.5 21:33:53 10° SW 21:37:21 30° WNW 21:40:50 10° N
Cosmos 44 4.3 21:33:24 10° WNW 21:38:23 37° SW 21:42:24 14° S
ALOS 2 2.7 21:38:42 15° S 21:42:20 73° WSW 21:46:45 10° NNW
Cosmos 990 Rocket 4.2 21:40:01 12° S 21:44:45 56° ESE 21:49:55 10° NE
NOSS 2-1 (E) 3.7 21:41:35 10° WNW 21:45:36 89° SSW 21:51:07 10° ESE
Cosmos 1707 Rocket 3.6 21:42:54 13° SSW 21:46:49 88° E 21:51:16 10° NNE
Cosmos 1238 Rocket 4.3 21:46:08 10° NNW 21:52:36 61° W 21:57:51 13° S
Cosmos 1743 4.0 21:50:16 10° NNW 21:53:41 31° W 21:56:52 11° SSW
Cosmos 494 Rocket 4.1 21:49:36 10° NW 21:54:53 77° NE 22:00:05 10° SE
Cosmos 2344 4.1 21:46:43 10° WNW 21:54:59 75° SSW 22:06:15 10° SE
ATLAS 2AS CENTAUR R/B 3.7 21:48:47 10° WNW 21:55:18 33° WSW 22:00:31 14° S
Meteor 1-18 Rocket 4.5 21:50:36 14° S 21:55:21 58° E 22:00:50 10° NNE
SeaSat 1 4.0 21:51:35 10° ENE 21:55:24 22° ESE 21:58:33 13° SSE
Okean 1-7 4.2 21:53:25 13° SSE 21:56:37 31° E 22:00:26 10° NNE
NOSS 3-3 (A) 4.1 21:51:04 10° SW 21:57:15 78° SSE 22:04:30 10° ENE
NOSS 3-3 (C) 4.1 21:51:11 10° SW 21:57:22 78° SSE 22:04:36 10° ENE
Helios 1A 4.3 21:55:54 10° ESE 21:59:41 35° ENE 22:03:30 10° N
Cosmos 1833 4.2 21:53:55 10° NW 21:59:42 83° SW 22:05:29 10° SE
USA 215 3.9 21:55:02 11° SSE 22:00:47 36° SW 22:06:43 10° W
Cosmos 2227 Rocket 3.7 21:57:18 10° NW 22:02:36 38° NNE 22:07:53 10° E
BREEZE-M DEB (TANK) 3.8 22:01:03 10° WSW 22:04:08 18° SSW 22:04:40 17° S
Cosmos 2242 Rocket 4.4 22:02:53 15° SSE 22:06:16 41° E 22:10:29 10° NNE
Cosmos 2297 Rocket 3.5 22:01:03 10° NW 22:06:28 42° NNE 22:11:52 10° E
Cosmos 2297 4.0 22:03:57 13° SSW 22:08:50 51° ESE 22:14:19 10° NE
Cosmos 1733 Rocket 4.2 22:08:37 10° NNW 22:12:33 34° W 22:16:02 12° SSW
Cosmos 2181 Rocket 4.0 22:07:22 13° S 22:12:57 88° ESE 22:19:08 10° NNE
Okean 2 Rocket 4.0 22:14:25 10° N 22:18:40 44° ENE 22:22:53 10° SE
Cosmos 2366 rocket 4.4 22:12:51 10° NNW 22:18:49 53° W 22:24:07 13° SSW
Cosmos 1821 Rocket 4.1 22:14:07 10° NNW 22:20:34 88° WSW 22:26:15 14° S
SJ 16-02 2.3 22:17:10 10° WSW 22:21:29 48° NW 22:25:50 10° NNE
Thor Agena Rocket 3.9 22:18:23 10° NNE 22:23:31 55° ESE 22:27:48 15° S
Cosmos 2082 Rocket 4.3 22:21:15 10° WNW 22:24:01 14° W 22:26:47 10° SW
Cosmos 1908 Rocket 4.0 22:20:02 10° NNW 22:24:27 56° W 22:27:56 16° S
Cosmos 1934 Rocket 4.2 22:20:37 10° NNW 22:26:52 70° ENE 22:32:49 11° SSE
Cosmos 1937 Rocket 3.5 22:24:06 13° SSW 22:28:38 70° ESE 22:33:49 10° NE
Cosmos 1269 Rocket 4.3 22:25:06 10° NNW 22:30:26 70° NE 22:35:44 10° SE
Cosmos 1300 Rocket 3.9 22:26:19 10° N 22:30:44 62° ENE 22:34:51 12° SSE
Cosmos 1048 Rocket 4.2 22:26:01 10° NW 22:31:18 59° WSW 22:35:45 14° S
Resurs 1-4 Rocket 4.3 22:28:22 10° NE 22:31:24 15° E 22:34:25 10° ESE
NOSS 2-1 (C) 3.8 22:28:01 10° WNW 22:32:06 63° SSW 22:37:41 10° SE
SL-16 R/B 3.5 22:27:22 10° SE 22:33:20 48° NE 22:39:18 10° NNW
YAOGAN 11 4.4 22:29:28 10° SE 22:33:41 63° ENE 22:37:58 10° NNW
Nimbus 7 Rocket 4.5 22:28:26 10° NNE 22:34:20 74° ESE 22:39:29 14° SSW
ERBS 4.0 22:34:54 10° WSW 22:36:56 15° SW 22:37:05 15° SSW
Cosmos 1356 Rocket 3.5 22:33:51 10° NNW 22:38:08 82° WSW 22:41:40 15° SSE
NOSS 2-1 (D) 3.8 22:34:46 10° WNW 22:38:52 59° SSW 22:44:27 10° SE
Cosmos 858 Rocket 4.5 22:37:13 12° SSW 22:42:00 80° ESE 22:47:17 10° NE
Cosmos 2219 4.2 22:36:52 10° NW 22:42:25 50° NNE 22:47:59 10° ESE
USA 281 3.2 22:37:27 10° SE 22:44:03 87° SW 22:50:42 10° NW
COSMOS 2455 3.1 22:38:43 10° NW 22:44:48 78° NNE 22:50:51 10° ESE
Meteor 1-19 Rocket 4.3 22:40:49 12° SSW 22:45:48 71° WNW 22:51:15 10° NNE
SL-24 R/B 4.2 22:45:03 12° SSE 22:49:25 83° ENE 22:53:42 10° NNW
Okean 1 4.2 22:46:34 11° SW 22:50:19 42° WNW 22:54:09 10° N
COSMOS 2487 2.5 22:51:22 10° NNW 22:54:47 72° NE 22:58:11 10° SE
Cosmos 1782 Rocket 4.1 22:51:28 10° NNW 22:55:49 50° W 22:59:17 15° SSW
Cosmos 1461 4.1 22:53:28 15° S 22:56:40 33° SE 23:00:47 10° ENE
Cosmos 2278 Rocket 3.1 22:52:11 10° WSW 22:57:43 51° NNW 23:03:16 10° NE
MTI 4.4 22:56:07 10° N 22:59:01 44° WNW 23:01:27 13° SW
Cosmos 1703 Rocket 3.6 22:57:18 15° SSW 23:00:53 85° WNW 23:05:20 10° NNE
Cosmos 1862 Rocket 4.4 22:57:00 10° SW 23:01:07 42° WNW 23:05:16 10° N
Cosmos 1898 Rocket 3.9 22:58:13 10° SW 23:03:32 67° NW 23:08:53 10° NNE
Cosmos 44 Rocket 3.7 22:59:25 10° WNW 23:04:31 51° SW 23:09:32 10° SSE
Cosmos 2084 3.5 23:01:01 10° WSW 23:05:17 84° NNW 23:09:43 10° ENE
RESURS DK-1 3.4 23:03:32 10° WNW 23:07:11 30° WSW 23:09:53 15° S
Cosmos 2263 Rocket 4.1 23:02:14 10° NW 23:07:22 35° NNE 23:12:31 10° E
Cosmos 1378 3.2 23:04:38 16° S 23:07:30 70° ESE 23:11:13 10° NNE
Nadezhda 3 Rocket 4.0 23:02:11 14° S 23:07:44 86° ESE 23:13:59 10° NNE
Cosmos 2369 Rocket 2.5 23:03:27 14° SSW 23:08:12 57° ESE 23:13:45 10° NE
SL-27 R/B 3.4 23:08:20 10° NW 23:11:17 30° WSW 23:13:17 17° SSW
Cosmos 1805 3.3 23:07:26 10° NNW 23:11:21 67° W 23:14:33 15° S
Cosmos 1733 3.2 23:09:43 10° NNW 23:13:31 74° W 23:16:42 14° S
Meteor 1-13 Rocket 4.3 23:09:32 14° S 23:14:23 76° ESE 23:19:56 10° NNE
PSLV R/B 3.7 23:10:11 10° NNE 23:14:43 81° ESE 23:18:26 14° SSW
Cosmos 1726 3.3 23:11:15 10° N 23:14:50 41° ENE 23:18:22 10° SE
TSX-5 4.4 23:12:49 10° NW 23:15:53 47° NNE 23:19:08 10° ESE
Timation 2 Rocket 4.2 23:10:50 10° NW 23:16:53 71° NE 23:22:52 10° ESE
Cosmos 1766 3.3 23:13:33 10° NNW 23:17:33 79° WSW 23:21:04 13° S
Cosmos 1943 Rocket 2.2 23:11:55 10° SW 23:17:35 89° SE 23:23:13 10° NE
Helios 1B rocket 4.4 23:16:10 10° NE 23:19:23 21° E 23:22:35 10° SE
Cosmos 1867 4.5 23:18:57 13° S 23:23:08 35° SE 23:28:04 10° ENE
EO 1 Del DPAF 3.2 23:20:47 10° NNE 23:24:32 90° WNW 23:27:38 15° SSW
DNEPR-1 R/B 4.0 23:19:58 10° SW 23:25:20 60° SE 23:29:53 10° ENE
Cosmos 1605 Rocket 4.0 23:19:37 10° NNW 23:25:50 82° W 23:32:07 10° S
Meteor 2-4 Rocket 4.1 23:20:31 11° SSW 23:25:56 62° WNW 23:31:31 10° NNE
UNK 4.1 23:22:50 10° SSE 23:27:24 67° ENE 23:31:59 10° NNW
Cosmos 1315 Rocket 4.0 23:27:25 10° N 23:31:12 41° ENE 23:34:59 10° SE
Okean 3 3.5 23:28:08 14° SSW 23:31:47 80° WNW 23:36:04 10° NNE
Sich 1 Rocket 4.2 23:27:24 10° NNW 23:31:48 45° W 23:35:34 13° SSW
Cosmos 1066 Rocket 4.3 23:26:44 13° S 23:31:58 80° ESE 23:37:39 10° NNE
Cosmos 1400 Rocket 2.9 23:27:48 10° NNW 23:31:59 89° ENE 23:36:06 10° SSE
Okean 1 Rocket 3.2 23:28:53 10° NNW 23:33:21 75° ENE 23:37:45 10° SSE
SeaSat 1 2.5 23:28:41 10° NE 23:33:40 75° SE 23:38:19 12° SSW
Okean 1-7 3.6 23:30:15 12° SW 23:34:03 50° WNW 23:38:16 10° N
Helios 1A 3.3 23:31:39 13° S 23:35:10 50° W 23:39:15 10° NNW
ATLAS CENTAUR R/B 2.8 23:33:01 12° S 23:35:29 21° SE 23:38:23 10° ENE
Cosmos 372 Rocket 4.1 23:30:36 10° SW 23:35:39 75° NW 23:40:48 10° NNE
NOSS 2-1 (E) 4.5 23:31:48 10° WNW 23:35:59 38° SW 23:41:35 10° SSE
USA 81 4.1 23:32:03 10° NNW 23:37:21 72° W 23:42:25 11° S
EP 1 4.2 23:36:19 10° WSW 23:38:56 82° NNW 23:41:37 10° ENE
Cosmos 1470 2.9 23:35:34 10° NNW 23:39:30 74° ENE 23:43:24 10° SSE
Cosmos 1125 Rocket 3.8 23:35:51 13° SSW 23:40:29 61° ESE 23:45:39 10° NE
Cosmos 2173 Rocket 4.4 23:34:28 10° NNW 23:40:35 64° ENE 23:46:44 10° SSE
Cosmos 1656 Rocket 3.8 23:39:04 12° SSW 23:44:01 64° ESE 23:49:32 10° NE
Cosmos 2242 Rocket 4.5 23:40:22 10° SW 23:44:32 42° WNW 23:48:49 10° N
Cosmos 2227 Rocket 2.4 23:41:41 10° NW 23:47:23 80° NE 23:53:04 10° SE
CZ-2D R/B 3.1 23:42:53 10° NNE 23:48:05 42° E 23:53:12 10° SSE
NOSS 3-3 (A) 4.5 23:41:54 10° W 23:48:25 77° N 23:56:05 10° E
NOSS 3-3 (C) 4.5 23:42:01 10° W 23:48:32 77° N 23:56:09 10° E
Cosmos 2297 Rocket 2.2 23:45:22 10° NW 23:51:05 87° SW 23:56:47 10° SE
Cosmos 2297 4.2 23:47:24 10° WSW 23:53:03 59° NW 23:58:41 10° NE
Cosmos 1674 Rocket 4.0 23:50:00 10° S 23:54:23 59° E 23:58:48 10° NNE
